AO-07 1 07530U 74089B 26206.54620918 -.00000026 00000-0 12961-3 0 9995 2 07530 101.9910 220.1929 0012595 59.1811 94.8130 12.53698732365320 UO-11 1 14781U 84021B 26206.34450769 .00001405 00000-0 14819-3 0 9996 2 14781 97.8084 171.5010 0009047 63.4432 296.7713 14.90871315262819 LO-19 1 20442U 90005G 26205.99646881 .00000112 00000-0 56656-4 0 9998 2 20442 98.8847 228.8424 0012687 95.1465 265.1167 14.34132993907814 AO-27 1 22825U 93061C 26206.45784625 .00000083 00000-0 48738-4 0 9990 2 22825 98.6860 273.8533 0008163 356.2107 3.9012 14.30951160712477 FO-29 1 24278U 96046B 26206.31243085 -.00000032 00000-0 44308-5 0 9990 2 24278 98.5212 49.9583 0349854 357.7036 2.2484 13.53275820478324 GO-32 1 25397U 98043D 26205.99551831 .00000066 00000-0 48523-4 0 9994 2 25397 99.0093 199.7120 0002353 99.2543 260.8901 14.24434889456718 ISS 1 25544U 98067A 26206.44322024 .00008631 00000-0 16367-3 0 9991 2 25544 51.6316 110.7757 0006909 336.1751 23.8916 15.49160253577680 NO-44 1 26931U 01043C 26206.22488744 .00000115 00000-0 73823-4 0 9998 2 26931 67.0506 145.8886 0005822 267.4372 92.6064 14.31968260295895 SO-50 1 27607U 02058C 26205.24220061 .00001104 00000-0 14711-3 0 9992 2 27607 64.5525 14.3305 0074248 255.6154 103.6703 14.83113955269951 CO-55 1 27844U 03031E 26205.97080695 .00000297 00000-0 14722-3 0 9998 2 27844 98.6748 214.0560 0010828 77.5978 282.6412 14.24356508197054 RS-22 1 27939U 03042A 26206.65234089 .00001306 00000-0 20902-3 0 9998 2 27939 98.3484 32.1017 0012001 141.2997 307.9072 14.73531061221216 CO-65 1 32785U 08021C 26206.49415900 .00005343 00000-0 33482-3 0 9992 2 32785 97.8300 188.7244 0006948 255.5494 104.4964 15.09778688990970 CO-66 1 32791U 08021J 26206.44161486 .00018004 00000-0 54963-3 0 9996 2 32791 97.7534 206.2047 0004107 136.7672 223.3893 15.33968984993157 RS-30 1 32953U 08025A 26206.64746832 -.00000040 00000-0 -36140-3 0 9996 2 32953 82.5065 331.5164 0018926 225.0401 134.9145 12.43180931824477 SRMSAT 1 37841U 11058D 26206.31623030 .00000371 00000-0 57488-4 0 9999 2 37841 19.9702 188.6808 0011529 263.3024 126.8770 14.11582740763213 ZACUBE-1 1 39417U 13066B 26205.86534553 .00004284 00000-0 33038-3 0 9992 2 39417 97.7985 168.3837 0044026 124.3429 236.1972 15.01376484686388 Delfi-N3xt 1 39428U 13066N 26206.32201267 .00007814 00000-0 67157-3 0 9990 2 39428 97.8311 126.6021 0075896 80.0971 280.8807 14.95465720680320 GOMX-1 1 39430U 13066Q 26206.52066668 .00001349 00000-0 20854-3 0 9999 2 39430 97.6471 44.5652 0127295 314.8673 44.2250 14.69562673675542 LO-74 1 39440U 13066AA 26206.30857478 .00002820 00000-0 26230-3 0 9992 2 39440 97.8912 155.4595 0055574 260.9292 98.5636 14.94019264682685 AO-73 1 39444U 13066AE 26206.36606101 .00007325 00000-0 44800-3 0 9995 2 39444 97.8297 178.6265 0037962 74.8469 285.6953 15.09941451685420 DTUSAT-2 1 40030U 14033W 26205.94519396 .00008444 00000-0 44971-3 0 9997 2 40030 98.0883 206.0853 0009671 104.2330 255.9975 15.15456993658408 LILACSAT-2 1 40908U 15049K 26206.56886549 .00018538 00000-0 30167-3 0 9992 2 40908 97.4629 244.8943 0008636 111.3237 248.8939 15.52677704601706 Lapan A3 1 41603U 16040E 26206.63192117 .00003231 00000-0 10256-3 0 9997 2 41603 97.1510 201.5245 0008613 230.1442 129.9044 15.33329961560701 CAS-2T 1 41847U 16066G 26206.19285527 .00000756 00000-0 11465-3 0 9996 2 41847 98.3807 281.4941 0341676 14.4584 346.6092 14.44783847510289 TechnoSat 1 42829U 17042E 26206.01229365 .00002592 00000-0 18562-3 0 9996 2 42829 97.4320 2.2450 0016521 329.7110 30.3160 15.05151414492390 AO-91 1 43017U 17073E 26206.17113769 .00008348 00000-0 36095-3 0 9993 2 43017 97.4664 72.6124 0148729 196.8053 162.8223 15.13177800471131 S-Net D 1 43186U 18014G 26206.32769003 .00004615 00000-0 23696-3 0 9997 2 43186 97.5322 110.8814 0006368 239.7448 120.3155 15.16993503464547 S-Net B 1 43187U 18014H 26206.60375119 .00004958 00000-0 25449-3 0 9998 2 43187 97.5327 111.1433 0007111 233.4587 126.5992 15.16965653464582 S-Net A 1 43188U 18014J 26206.52424253 .00004539 00000-0 23301-3 0 9994 2 43188 97.5337 111.2806 0006968 234.5864 125.4719 15.17003706464575 S-Net C 1 43189U 18014K 26206.54187680 .00005007 00000-0 25694-3 0 9995 2 43189 97.5355 111.3785 0008483 227.2053 132.8468 15.16955499463123 Ten-Koh 1 43677U 18084G 26206.40390799 .00002223 00000-0 16966-3 0 9995 2 43677 98.0772 40.3786 0009248 2.1261 358.0001 15.03085899421906 PO-101 1 43678U 18084H 26206.58003222 .00002025 00000-0 16531-3 0 9995 2 43678 98.1224 44.4727 0012116 52.0326 308.1989 15.00594717421973 QO-100 1 43700U 18090A 26204.54610483 .00000000 00000-0 00000 0 0 9996 2 43700 0.0186 49.6880 0002702 107.0586 6.9459 1.00273645 28049 MinXSS-2 1 43758U 18099A 26206.16106031 .00045047 00000-0 81574-3 0 9996 2 43758 97.4516 283.6259 0008747 129.1978 231.0051 15.49479440420004 AO-95 1 43770U 18099N 26206.60685455 .00011144 00000-0 41686-3 0 9992 2 43770 97.4366 266.7259 0008191 199.5193 160.5733 15.27462878419088 SNUSat 2 1 43782U 18099AA 26206.39689889 .00007982 00000-0 34814-3 0 9996 2 43782 97.4043 259.2016 0011198 153.8370 206.3435 15.22372894418846 SnugLite 1 43784U 18099AC 26206.59529363 .00011243 00000-0 41458-3 0 9997 2 43784 97.3852 260.5120 0004360 134.5299 225.6297 15.27953980419189 ITASat 1 1 43786U 18099AE 26206.61720578 .00007024 00000-0 33353-3 0 9990 2 43786 97.4012 257.3676 0011709 210.4633 149.5923 15.19490039418744 EAGLET 1 1 43790U 18099AJ 26206.60813970 .00004363 00000-0 24912-3 0 9997 2 43790 97.4214 255.2600 0010413 204.4367 155.6372 15.13198653418146 ESEO 1 43792U 18099AL 26206.62773065 .00001494 00000-0 11119-3 0 9998 2 43792 97.3963 242.3686 0011511 192.8051 167.2885 15.04353285417588 JO-97 1 43803U 18099AX 26206.11966135 .00020406 00000-0 60580-3 0 9997 2 43803 97.4112 269.1106 0007358 129.3016 230.8880 15.34801297419445 Suomi 100 1 43804U 18099AY 26206.62613702 .00012590 00000-0 44524-3 0 9998 2 43804 97.4169 266.8926 0011323 138.8337 221.3759 15.29247996419297 ISAT 1 43879U 18111D 26206.55458933 .00145816 00000-0 10463-2 0 9992 2 43879 97.5836 144.9478 0008770 125.0290 235.1798 15.73178222417183 UWE-4 1 43880U 18111E 26206.24216282 .00032642 00000-0 61608-3 0 9999 2 43880 97.5836 136.4504 0007853 160.5744 199.5807 15.48369567416662 Sparrow 1 43881U 18111F 26206.60003763 .00380888 56607-4 12274-2 0 9998 2 43881 97.6072 151.5203 0009567 142.0597 218.1351 15.90807699417444 Prox-1 1 44339U 19036A 26206.33681534 .00012070 00000-0 11496-2 0 9994 2 44339 23.9927 219.2415 0006584 119.4312 240.6845 14.91430754379179 Taurus 1 1 44530U 19059C 26206.57331719 .00005934 00000-0 94329-3 0 9993 2 44530 98.6445 13.8000 0008786 182.3007 177.8160 14.72458828364299 TO-108 1 44881U 19093C 26206.61410159 .00001103 00000-0 13041-3 0 9997 2 44881 97.7515 277.9062 0012666 326.2933 33.7476 14.86573180357124 RS-44 1 44909U 19096E 26206.31352170 .00000001 00000-0 -47595-4 0 9995 2 44909 82.5245 314.3731 0218318 55.4410 306.7082 12.79748878307229 SALSAT 1 46495U 20068K 26206.46920955 .00007256 00000-0 25013-3 0 9994 2 46495 97.8864 211.8813 0010316 158.0440 202.1243 15.30293295321211 CSS (TIANHE-1) 1 48274U 21035A 26205.70067244 .00011455 00000-0 15064-3 0 9996 2 48274 41.4690 94.2105 0001496 308.5106 51.5598 15.58352000299029 CUTE 1 49263U 21088D 26197.83813593 .08921004 25505-5 41832-3 0 9995 2 49263 97.3907 300.4441 0014216 277.7997 82.1689 16.41647044267308 TeikyoSat 4 1 49396U 21102B 26206.03630166 .00001991 00000-0 12738-3 0 9992 2 49396 97.3661 234.0481 0012679 155.3256 204.8583 15.09626490258433 Z-Sat 1 49399U 21102E 26206.55237438 .00005532 00000-0 26999-3 0 9996 2 49399 97.3320 240.7129 0018325 111.4185 248.9006 15.18534539259262 KOSEN 1 1 49402U 21102H 26206.53995673 .00007773 00000-0 29204-3 0 9992 2 49402 97.3173 247.9595 0015225 75.4462 284.8465 15.27340600259871 HO-113 1 50466U 21131B 26206.58180159 .00000693 00000-0 22767-3 0 9997 2 50466 98.4983 298.7645 0003896 2.1641 357.9564 14.41390013240646 SNUGLITE 2 1 52899U 22065F 26206.36357535 .00000966 00000-0 19186-3 0 9990 2 52899 98.2248 351.1375 0006161 262.2751 97.7751 14.64409190216588 UmKA 1 (RS40S) 1 57172U 23091G 26206.57930911 .00006142 00000-0 27790-3 0 9999 2 57172 97.5032 265.1337 0011967 353.6309 6.4773 15.21215409169845 CubeBel-2 (EU11S) 1 57175U 23091K 26206.58419393 .00012945 00000-0 44724-3 0 9993 2 57175 97.5033 270.1628 0008455 348.7537 11.3513 15.30034261170174 RS-38S 1 57189U 23091Z 26206.56867811 .00016733 00000-0 46171-3 0 9995 2 57189 97.5076 276.8500 0005194 293.3386 66.7312 15.37152872170584 SONATE-2 1 59112U 24043Q 26206.36493280 .00042417 00000-0 49370-3 0 9996 2 59112 97.5560 359.1960 0006183 71.7222 288.4707 15.61572504133845 GRBBeta 1 60237U 24128C 26206.64431851 .00003631 00000-0 25317-3 0 9997 2 60237 61.9902 81.3158 0035592 142.9914 217.3644 15.06868589112060 Curium One 1 60242U 24128H 26206.11159145 .00008741 00000-0 49751-3 0 9993 2 60242 61.9789 71.4042 0035151 138.7459 221.6303 15.12985749112198 ROBUSTA-3A 1 60243U 24128J 26206.62720512 .00008051 00000-0 47005-3 0 9996 2 60243 61.9866 72.2633 0036575 136.3250 224.0750 15.12114154112236 CatSat 1 60246U 24125J 26206.53644579 .00072439 00000-0 77190-3 0 9993 2 60246 97.2056 59.6663 0018535 46.1961 314.0827 15.63532151113375 HYPERVIEW-1G (RS66S) 1 61772U 24199AP 26206.39033472 .00289891 32849-4 96332-3 0 9998 2 61772 97.2759 88.3911 0008076 133.5140 226.6806 15.90230786140716 AO-123 1 61781U 24199AY 26206.60305585 .00007593 00000-0 21698-3 0 9999 2 61781 97.2955 74.9311 0014171 163.1031 197.0688 15.36180738139820 JINJUSat 1B 1 63210U 25052A 26206.43459368 .00016495 00000-0 49339-3 0 9990 2 63210 97.3958 103.2630 0001808 355.9615 4.1613 15.34631591 75961 NUSHSAT 1 1 63211U 25052B 26206.21789034 .00020246 00000-0 55386-3 0 9991 2 63211 97.3934 103.7498 0001819 16.8453 343.2851 15.37387925 75983 TEVEL2-4 1 63213U 25052D 26206.24596916 .00018457 00000-0 53026-3 0 9991 2 63213 97.3856 102.7253 0002395 34.3514 325.7885 15.35877829 75953 TEVEL2-5 1 63214U 25052E 26206.46645690 .00018969 00000-0 54811-3 0 9991 2 63214 97.3856 102.8833 0002463 34.7171 325.4233 15.35691666 75988 TEVEL2-6 1 63215U 25052F 26206.28418526 .00018170 00000-0 52586-3 0 9999 2 63215 97.3857 102.6853 0002499 37.3802 322.7615 15.35649939 75956 TEVEL2-1 1 63217U 25052H 26206.39222250 .00018169 00000-0 53552-3 0 9992 2 63217 97.3829 102.3709 0003196 38.4496 321.6974 15.35073268 75952 TEVEL2-3 1 63218U 25052J 26206.25499552 .00018228 00000-0 53622-3 0 9993 2 63218 97.3838 102.2607 0003043 42.9226 317.2254 15.35133035 75930 TEVEL2-2 1 63219U 25052K 26206.45746062 .00018208 00000-0 53642-3 0 9997 2 63219 97.3832 102.4392 0003215 39.0508 321.0967 15.35087050 75961 TEVEL2-9 1 63237U 25052AD 26206.22442618 .00016368 00000-0 51506-3 0 9994 2 63237 97.3898 101.4957 0006578 28.4807 331.6793 15.33002824 75854 TEVEL2-7 1 63238U 25052AE 26206.27298952 .00016056 00000-0 51042-3 0 9999 2 63238 97.3894 101.4439 0006671 28.0041 332.1558 15.32679957 75857 TEVEL2-8 1 63239U 25052AF 26206.21631719 .00016219 00000-0 51581-3 0 9995 2 63239 97.3894 101.3630 0006724 28.7989 331.3623 15.32664639 75841 SPIRONE 1 66657U 25274H 26206.30691020 .00001996 00000-0 19399-3 0 9996 2 66657 97.7469 135.0558 0010435 244.8148 115.1990 14.93686132 35912 K-HERO 1 66660U 25274L 26206.30101256 .00001987 00000-0 19113-3 0 9991 2 66660 97.7479 135.2389 0012256 250.0458 109.9442 14.94092089 35924 SNUGLITE-III DURI 1 66661U 25274M 26206.48887950 .00001981 00000-0 19042-3 0 9998 2 66661 97.7475 135.4451 0012930 250.3497 109.6328 14.94116580 35954 SAKHACUBE-CHOLBON 1 67290U 25313AU 26206.14664703 .00011512 00000-0 45646-3 0 9993 2 67290 97.3918 280.7195 0008459 211.5984 148.4748 15.25511378 31762 RS95S (QMR-KWT-2) 1 67291U 25313AV 26206.48959521 .00014552 00000-0 54746-3 0 9994 2 67291 97.3918 281.3212 0008331 206.6806 153.4006 15.27204540 31830 Ten-Koh2 1 68261U 25241B 26206.24345072 .00006765 00000-0 28665-3 0 9994 2 68261 51.6557 138.4566 0004802 264.3536 95.6894 15.24269104 20715 JACK-002 1 68417U 26067B 26206.15589957 .00007534 00000-0 35470-3 0 9993 2 68417 97.4583 164.2934 0003688 117.1642 242.9969 15.19814951 17711 DISCO 2 1 68431U 26067R 26205.45940021 .00009063 00000-0 42890-3 0 9997 2 68431 97.4614 163.5950 0001727 155.3475 204.7843 15.19582452 17605 HADES-SA (SpinnyONE) 1 68446U 26067AG 26206.34595336 .00018093 00000-0 83480-3 0 9990 2 68446 97.4410 164.1081 0004520 323.3279 36.7646 15.20280123 17729 PARUS-6U1 1 68456U 26067AS 26205.83500184 .00006695 00000-0 33365-3 0 9993 2 68456 97.4568 163.6337 0003762 305.8102 54.2782 15.17876196 17643 SAL-E 1 68458U 26067AU 26206.61362110 .00007737 00000-0 38072-3 0 9995 2 68458 97.4494 164.3174 0004004 317.1155 42.9766 15.18266258 17766 FSI-SAT 2 1 68792U 26088A 26206.33282305 .00003888 00000-0 26254-3 0 9997 2 68792 97.5111 354.6513 0013581 343.9713 16.1083 15.07104237 14030 OrigamiSat 2 1 68795U 26088D 26206.35368352 .00011672 00000-0 72992-3 0 9999 2 68795 97.5104 354.9324 0013571 309.4831 50.5197 15.09507372 14054 ARICA 2 1 68796U 26088E 26206.30110131 .00004815 00000-0 31045-3 0 9990 2 68796 97.5098 354.8345 0014399 311.0122 48.9861 15.08689997 14041 WASEDA-SAT-ZERO-II 1 68797U 26088F 26206.35624431 .00006299 00000-0 40128-3 0 9999 2 68797 97.5097 354.9115 0014070 310.2858 49.7140 15.09018473 14056 MANGARO-II-Piscus 1 68798U 26088G 26206.47753518 .00003684 00000-0 23612-3 0 9996 2 68798 97.5112 355.0685 0017608 313.1308 46.8448 15.09024101 14077 IO-86 1 40931U 25360.30710720 .00000000 00000-0 12800-3 0 00 2 40931 6.0006 332.5373 0012733 338.8432 8.1437 14.79075515 01 LILIUM-4 1 71922C 26067AC 26089.50133053 -.00014632 00000 0 -74472-3 0 04 2 71922 97.4497 49.1617 0004341 5.9603 355.7042 15.16896692 16